WMT721 LRTR-LIBD

Flight info

Callsign WMT721
Flight time 1h 11m
Altitude 38000
Route MAVIT DCT LASTI DCT PINUK DCT CRAYE DCT ENOXA
Aircraft A20N/M-SDE2E3FGHIRWXY/LB1

Departure

Time 2026-05-09 13:51
Airport Timișoara Traian Vuia International Airport (LRTR)

Arrival

Time 2026-05-09 15:02
Airport Bari Karol Wojtyła International Airport (LIBD)
Time Latitude Longitude Altitude Speed Heading
2026-05-09 13:13 45.81043 21.32187 345 ft 0 kts 200°
2026-05-09 13:41 45.81050 21.32191 345 ft 2 kts 200°
2026-05-09 13:41 45.81063 21.32198 345 ft 2 kts 200°
2026-05-09 13:41 45.81073 21.32204 345 ft 2 kts 200°
2026-05-09 13:42 45.81081 21.32208 345 ft 2 kts 198°
2026-05-09 13:42 45.81095 21.32206 345 ft 2 kts 147°
2026-05-09 13:42 45.81103 21.32194 345 ft 0 kts 114°
2026-05-09 13:42 45.81106 21.32185 345 ft 1 kts 108°
2026-05-09 13:43 45.81106 21.32183 345 ft 0 kts 109°
2026-05-09 13:45 45.81106 21.32184 345 ft 0 kts 109°
2026-05-09 13:45 45.81105 21.32186 345 ft 0 kts 109°
2026-05-09 13:45 45.81102 21.32201 345 ft 4 kts 109°
2026-05-09 13:46 45.81079 21.32287 345 ft 13 kts 110°
2026-05-09 13:46 45.81049 21.32413 346 ft 13 kts 96°
2026-05-09 13:46 45.81089 21.32515 347 ft 11 kts 93°
2026-05-09 13:46 45.81062 21.32629 348 ft 14 kts 110°
2026-05-09 13:47 45.81026 21.32773 350 ft 14 kts 109°
2026-05-09 13:47 45.80975 21.32973 352 ft 24 kts 110°
2026-05-09 13:47 45.80919 21.33191 354 ft 22 kts 109°
2026-05-09 13:47 45.80868 21.33397 355 ft 21 kts 109°
2026-05-09 13:48 45.80929 21.33553 355 ft 19 kts 19°
2026-05-09 13:48 45.81005 21.33686 355 ft 21 kts 102°
2026-05-09 13:48 45.80931 21.33992 354 ft 38 kts 109°
2026-05-09 13:48 45.80844 21.34344 352 ft 35 kts 109°
2026-05-09 13:49 45.80759 21.34684 351 ft 38 kts 109°
2026-05-09 13:49 45.80673 21.35025 351 ft 35 kts 110°
2026-05-09 13:49 45.80593 21.35343 351 ft 32 kts 110°
2026-05-09 13:49 45.80508 21.35679 352 ft 29 kts 109°
2026-05-09 13:50 45.80465 21.35868 352 ft 11 kts 232°
2026-05-09 13:50 45.80467 21.35841 352 ft 3 kts 290°
2026-05-09 13:50 45.80562 21.35463 352 ft 81 kts 290°
2026-05-09 13:50 45.80840 21.34353 353 ft 150 kts 290°
2026-05-09 13:51 45.81213 21.32815 827 ft 165 kts 290°
2026-05-09 13:51 45.81600 21.31288 1590 ft 165 kts 294°
2026-05-09 13:51 45.82029 21.29790 2323 ft 166 kts 296°
2026-05-09 13:51 45.82484 21.28228 2927 ft 178 kts 293°
2026-05-09 13:52 45.82902 21.26484 3459 ft 195 kts 291°
2026-05-09 13:52 45.83356 21.24544 3934 ft 218 kts 291°
2026-05-09 13:52 45.83857 21.22450 4723 ft 226 kts 292°
2026-05-09 13:52 45.84360 21.20380 5641 ft 227 kts 292°
2026-05-09 13:53 45.84877 21.18281 6567 ft 228 kts 292°
2026-05-09 13:53 45.85407 21.16152 7470 ft 230 kts 292°
2026-05-09 13:53 45.85922 21.13985 8326 ft 233 kts 285°
2026-05-09 13:53 45.85943 21.11601 8923 ft 254 kts 257°
2026-05-09 13:54 45.85089 21.09285 9414 ft 277 kts 228°
2026-05-09 13:54 45.83421 21.07758 9930 ft 297 kts 196°
2026-05-09 13:54 45.81417 21.07661 10599 ft 307 kts 166°
2026-05-09 13:54 45.79532 21.09090 11309 ft 312 kts 134°
2026-05-09 13:55 45.78235 21.11544 12106 ft 314 kts 122°
2026-05-09 13:55 45.76802 21.13882 12848 ft 320 kts 145°
2026-05-09 13:55 45.74735 21.15076 13622 ft 322 kts 173°
2026-05-09 13:55 45.72528 21.15168 14410 ft 324 kts 184°
2026-05-09 13:56 45.70275 21.14994 15179 ft 327 kts 185°
2026-05-09 13:56 45.67983 21.14859 15954 ft 330 kts 183°
2026-05-09 13:56 45.65687 21.14801 16716 ft 332 kts 182°
2026-05-09 13:56 45.63405 21.14791 17442 ft 335 kts 182°
2026-05-09 13:57 45.61073 21.14805 18156 ft 338 kts 182°
2026-05-09 13:57 45.58703 21.14825 18856 ft 340 kts 181°
2026-05-09 13:57 45.56329 21.14847 19532 ft 343 kts 181°
2026-05-09 13:57 45.53960 21.14869 20201 ft 346 kts 181°
2026-05-09 13:58 45.51534 21.14892 20880 ft 349 kts 181°
2026-05-09 13:58 45.49115 21.14915 21532 ft 352 kts 181°
2026-05-09 13:58 45.46676 21.14936 22172 ft 354 kts 181°
2026-05-09 13:58 45.44212 21.15208 22790 ft 359 kts 171°
2026-05-09 13:59 45.41802 21.16217 23393 ft 365 kts 159°
2026-05-09 13:59 45.39536 21.17879 24000 ft 370 kts 152°
2026-05-09 13:59 45.37303 21.19748 24570 ft 374 kts 151°
2026-05-09 13:59 45.35086 21.21628 25102 ft 378 kts 151°
2026-05-09 14:00 45.32811 21.23539 25620 ft 382 kts 152°
2026-05-09 14:00 45.31266 21.24826 25961 ft 385 kts 152°
2026-05-09 14:00 45.28166 21.27387 26617 ft 390 kts 152°
2026-05-09 14:00 45.25697 21.28902 27048 ft 390 kts 170°
2026-05-09 14:01 45.23029 21.29125 27504 ft 386 kts 191°
2026-05-09 14:01 45.20457 21.28049 27949 ft 381 kts 210°
2026-05-09 14:01 45.18162 21.26200 28406 ft 382 kts 213°
2026-05-09 14:01 45.15881 21.24290 28832 ft 385 kts 214°
2026-05-09 14:02 45.13569 21.22364 29241 ft 388 kts 213°
2026-05-09 14:02 45.11237 21.20434 29654 ft 391 kts 213°
2026-05-09 14:02 45.08859 21.18478 30082 ft 393 kts 214°
2026-05-09 14:02 45.06517 21.16561 30484 ft 395 kts 213°
2026-05-09 14:03 45.04126 21.14607 30871 ft 397 kts 213°
2026-05-09 14:03 45.01743 21.12662 31229 ft 398 kts 213°
2026-05-09 14:03 44.99351 21.10715 31571 ft 400 kts 213°
2026-05-09 14:03 44.96907 21.08728 31924 ft 402 kts 213°
2026-05-09 14:04 44.94503 21.06778 32276 ft 403 kts 213°
2026-05-09 14:04 44.92068 21.04803 32614 ft 405 kts 213°
2026-05-09 14:04 44.89635 21.02835 32937 ft 406 kts 213°
2026-05-09 14:04 44.87164 21.00835 33247 ft 407 kts 213°
2026-05-09 14:05 44.84718 20.98859 33538 ft 409 kts 213°
2026-05-09 14:05 44.82235 20.96856 33829 ft 410 kts 213°
2026-05-09 14:05 44.79758 20.94860 34190 ft 409 kts 213°
2026-05-09 14:05 44.77307 20.92887 34542 ft 408 kts 213°
2026-05-09 14:06 44.74843 20.90907 34836 ft 406 kts 213°
2026-05-09 14:06 44.72415 20.88956 35100 ft 406 kts 213°
2026-05-09 14:06 44.69982 20.87003 35334 ft 406 kts 214°
2026-05-09 14:06 44.67536 20.85041 35575 ft 405 kts 214°
2026-05-09 14:07 44.65086 20.83078 35806 ft 405 kts 214°
2026-05-09 14:07 44.62658 20.81134 36042 ft 404 kts 214°
2026-05-09 14:07 44.60216 20.79179 36293 ft 404 kts 214°
2026-05-09 14:07 44.57786 20.77237 36541 ft 404 kts 214°
2026-05-09 14:08 44.55335 20.75279 36751 ft 406 kts 214°
2026-05-09 14:08 44.52880 20.73321 36961 ft 407 kts 214°
2026-05-09 14:08 44.50423 20.71362 37143 ft 408 kts 214°
2026-05-09 14:08 44.47948 20.69393 37286 ft 410 kts 215°
2026-05-09 14:09 44.45480 20.67429 37452 ft 411 kts 215°
2026-05-09 14:09 44.42992 20.65451 37606 ft 412 kts 215°
2026-05-09 14:09 44.40506 20.63479 37758 ft 413 kts 215°
2026-05-09 14:09 44.37987 20.61482 37914 ft 414 kts 215°
2026-05-09 14:10 44.32988 20.57523 38059 ft 416 kts 215°
2026-05-09 14:10 44.30436 20.55506 38064 ft 417 kts 215°
2026-05-09 14:11 44.25397 20.51530 38073 ft 417 kts 216°
2026-05-09 14:11 44.20348 20.47550 38077 ft 416 kts 216°
2026-05-09 14:12 44.15326 20.43603 38078 ft 415 kts 216°
2026-05-09 14:12 44.10300 20.39660 38083 ft 416 kts 216°
2026-05-09 14:13 44.05254 20.35707 38084 ft 417 kts 216°
2026-05-09 14:15 43.85002 20.19923 38102 ft 418 kts 216°
2026-05-09 14:15 43.79935 20.15996 38109 ft 419 kts 216°
2026-05-09 14:16 43.74852 20.12059 38111 ft 419 kts 216°
2026-05-09 14:16 43.69730 20.08098 38108 ft 420 kts 216°
2026-05-09 14:17 43.64646 20.04183 38115 ft 421 kts 217°
2026-05-09 14:17 43.59518 20.00239 38113 ft 420 kts 217°
2026-05-09 14:18 43.54432 19.96332 38117 ft 419 kts 217°
2026-05-09 14:18 43.49301 19.92399 38114 ft 421 kts 217°
2026-05-09 14:19 43.44180 19.88483 38114 ft 420 kts 217°
2026-05-09 14:19 43.39085 19.84594 38121 ft 421 kts 217°
2026-05-09 14:20 43.33951 19.80681 38125 ft 421 kts 217°
2026-05-09 14:20 43.28832 19.76788 38124 ft 421 kts 217°
2026-05-09 14:21 43.21159 19.70968 38127 ft 421 kts 218°
2026-05-09 14:21 43.16024 19.67081 38128 ft 420 kts 218°
2026-05-09 14:22 43.10924 19.63231 38132 ft 420 kts 218°
2026-05-09 14:22 43.05805 19.59370 38132 ft 420 kts 218°
2026-05-09 14:23 43.00685 19.55518 38135 ft 421 kts 218°
2026-05-09 14:23 42.95560 19.51671 38138 ft 420 kts 218°
2026-05-09 14:24 42.90411 19.47812 38135 ft 419 kts 218°
2026-05-09 14:24 42.85306 19.43988 38130 ft 421 kts 218°
2026-05-09 14:25 42.80180 19.40161 38128 ft 420 kts 218°
2026-05-09 14:25 42.75056 19.36341 38127 ft 420 kts 218°
2026-05-09 14:26 42.69917 19.32519 38138 ft 420 kts 217°
2026-05-09 14:26 42.64807 19.28731 38133 ft 420 kts 218°
2026-05-09 14:27 42.59652 19.24907 38128 ft 421 kts 218°
2026-05-09 14:27 42.54520 19.21114 38114 ft 419 kts 218°
2026-05-09 14:28 42.49404 19.17337 38101 ft 419 kts 218°
2026-05-09 14:28 42.44306 19.13579 38098 ft 419 kts 218°
2026-05-09 14:29 42.39159 19.09793 38098 ft 420 kts 218°
2026-05-09 14:29 42.34023 19.06025 38099 ft 419 kts 218°
2026-05-09 14:30 42.31474 19.04155 38257 ft 420 kts 218°
2026-05-09 14:30 42.28920 19.02286 38157 ft 419 kts 218°
2026-05-09 14:30 42.23798 18.98538 38107 ft 420 kts 218°
2026-05-09 14:31 42.18650 18.94780 38088 ft 419 kts 218°
2026-05-09 14:31 42.13598 18.91001 38081 ft 415 kts 221°
2026-05-09 14:32 42.08884 18.86650 38076 ft 407 kts 227°
2026-05-09 14:32 42.04631 18.81707 38070 ft 400 kts 232°
2026-05-09 14:33 42.00576 18.76595 38065 ft 401 kts 232°
2026-05-09 14:33 41.96491 18.71458 38064 ft 401 kts 232°
2026-05-09 14:34 41.92408 18.66336 38062 ft 400 kts 232°
2026-05-09 14:34 41.88332 18.61233 38063 ft 400 kts 232°
2026-05-09 14:35 41.84306 18.56155 37942 ft 399 kts 233°
2026-05-09 14:35 41.82284 18.53567 37636 ft 397 kts 233°
2026-05-09 14:35 41.80326 18.51059 37288 ft 394 kts 233°
2026-05-09 14:36 41.78339 18.48522 36879 ft 390 kts 233°
2026-05-09 14:36 41.76391 18.46035 36368 ft 388 kts 233°
2026-05-09 14:36 41.74440 18.43545 35764 ft 388 kts 233°
2026-05-09 14:36 41.72504 18.41077 35172 ft 387 kts 233°
2026-05-09 14:37 41.70555 18.38597 34574 ft 387 kts 233°
2026-05-09 14:37 41.68597 18.36106 33991 ft 387 kts 233°
2026-05-09 14:37 41.66645 18.33623 33436 ft 388 kts 232°
2026-05-09 14:37 41.64695 18.31149 33034 ft 385 kts 232°
2026-05-09 14:38 41.62763 18.28698 32633 ft 382 kts 232°
2026-05-09 14:38 41.60849 18.26276 32223 ft 380 kts 232°
2026-05-09 14:38 41.58936 18.23855 31804 ft 377 kts 232°
2026-05-09 14:38 41.57041 18.21460 31383 ft 374 kts 232°
2026-05-09 14:39 41.55157 18.19079 30964 ft 372 kts 232°
2026-05-09 14:39 41.53279 18.16708 30541 ft 369 kts 231°
2026-05-09 14:39 41.51421 18.14356 30108 ft 366 kts 232°
2026-05-09 14:39 41.49680 18.11964 29679 ft 360 kts 235°
2026-05-09 14:40 41.48021 18.09450 29197 ft 357 kts 237°
2026-05-09 14:40 41.46418 18.06987 28770 ft 355 kts 236°
2026-05-09 14:40 41.44800 18.04509 28338 ft 352 kts 236°
2026-05-09 14:40 41.43210 18.02071 27919 ft 350 kts 237°
2026-05-09 14:41 41.41618 17.99633 27500 ft 347 kts 236°
2026-05-09 14:41 41.40048 17.97229 27094 ft 344 kts 236°
2026-05-09 14:41 41.38472 17.94818 26706 ft 341 kts 236°
2026-05-09 14:41 41.36920 17.92446 26338 ft 338 kts 237°
2026-05-09 14:42 41.35384 17.90097 25969 ft 335 kts 236°
2026-05-09 14:42 41.33849 17.87754 25596 ft 333 kts 236°
2026-05-09 14:42 41.32341 17.85453 25229 ft 330 kts 236°
2026-05-09 14:42 41.30830 17.83148 24855 ft 328 kts 236°
2026-05-09 14:43 41.29341 17.80878 24490 ft 326 kts 236°
2026-05-09 14:43 41.27863 17.78626 24119 ft 324 kts 236°
2026-05-09 14:43 41.26392 17.76390 23745 ft 322 kts 236°
2026-05-09 14:43 41.24912 17.74142 23365 ft 321 kts 236°
2026-05-09 14:44 41.23462 17.71938 22984 ft 320 kts 236°
2026-05-09 14:44 41.21990 17.69702 22580 ft 319 kts 237°
2026-05-09 14:44 41.20717 17.67309 22163 ft 311 kts 248°
2026-05-09 14:44 41.19854 17.64709 21743 ft 306 kts 258°
2026-05-09 14:45 41.19334 17.62008 21255 ft 305 kts 262°
2026-05-09 14:45 41.18885 17.59245 20815 ft 305 kts 263°
2026-05-09 14:45 41.18442 17.56486 20399 ft 307 kts 263°
2026-05-09 14:45 41.18002 17.53753 19983 ft 306 kts 263°
2026-05-09 14:46 41.17556 17.51011 19581 ft 305 kts 263°
2026-05-09 14:46 41.17107 17.48248 19179 ft 304 kts 263°
2026-05-09 14:46 41.16663 17.45529 18787 ft 302 kts 263°
2026-05-09 14:46 41.16218 17.42811 18393 ft 301 kts 263°
2026-05-09 14:47 41.15777 17.40115 17992 ft 300 kts 263°
2026-05-09 14:47 41.15336 17.37429 17594 ft 300 kts 262°
2026-05-09 14:47 41.14894 17.34731 17201 ft 299 kts 262°
2026-05-09 14:47 41.14451 17.32047 16791 ft 298 kts 262°
2026-05-09 14:48 41.14011 17.29381 16416 ft 297 kts 262°
2026-05-09 14:48 41.13566 17.26695 16041 ft 297 kts 262°
2026-05-09 14:48 41.13128 17.24047 15633 ft 297 kts 262°
2026-05-09 14:48 41.12684 17.21371 15239 ft 296 kts 262°
2026-05-09 14:49 41.12243 17.18709 14855 ft 295 kts 261°
2026-05-09 14:49 41.11808 17.16082 14478 ft 295 kts 261°
2026-05-09 14:49 41.11363 17.13416 14089 ft 294 kts 261°
2026-05-09 14:49 41.10922 17.10780 13715 ft 293 kts 261°
2026-05-09 14:50 41.10483 17.08145 13337 ft 292 kts 261°
2026-05-09 14:50 41.10043 17.05522 12959 ft 291 kts 261°
2026-05-09 14:50 41.09605 17.02912 12596 ft 290 kts 261°
2026-05-09 14:50 41.09193 17.00465 12247 ft 289 kts 261°
2026-05-09 14:51 41.08760 16.97889 11892 ft 288 kts 261°
2026-05-09 14:51 41.08323 16.95294 11520 ft 287 kts 261°
2026-05-09 14:51 41.07823 16.92743 11153 ft 287 kts 256°
2026-05-09 14:51 41.07172 16.90237 10784 ft 287 kts 253°
2026-05-09 14:52 41.06478 16.87767 10441 ft 285 kts 253°
2026-05-09 14:52 41.05786 16.85316 10103 ft 283 kts 252°
2026-05-09 14:52 41.05101 16.82901 9896 ft 276 kts 252°
2026-05-09 14:52 41.04425 16.80520 9568 ft 275 kts 252°
2026-05-09 14:53 41.03762 16.78173 9233 ft 273 kts 252°
2026-05-09 14:53 41.03100 16.75843 9079 ft 262 kts 252°
2026-05-09 14:53 41.02483 16.73674 9066 ft 248 kts 252°
2026-05-09 14:53 41.01883 16.71561 8746 ft 248 kts 252°
2026-05-09 14:54 41.01266 16.69379 8269 ft 252 kts 252°
2026-05-09 14:54 41.00656 16.67230 7922 ft 251 kts 252°
2026-05-09 14:54 41.00039 16.65060 7574 ft 251 kts 252°
2026-05-09 14:54 40.99420 16.62887 7233 ft 250 kts 252°
2026-05-09 14:55 40.98807 16.60743 6898 ft 249 kts 252°
2026-05-09 14:55 40.98200 16.58616 6574 ft 247 kts 251°
2026-05-09 14:55 40.97600 16.56518 6337 ft 246 kts 251°
2026-05-09 14:55 40.96995 16.54385 6091 ft 247 kts 253°
2026-05-09 14:56 40.96813 16.52177 5826 ft 243 kts 284°
2026-05-09 14:56 40.97538 16.50180 5581 ft 241 kts 313°
2026-05-09 14:56 40.98854 16.48920 5194 ft 235 kts 339°
2026-05-09 14:56 41.00434 16.48360 4575 ft 236 kts 347°
2026-05-09 14:57 41.02030 16.47873 4137 ft 234 kts 347°
2026-05-09 14:57 41.03615 16.47380 4001 ft 235 kts 348°
2026-05-09 14:57 41.05241 16.47340 3978 ft 238 kts 18°
2026-05-09 14:57 41.06585 16.48616 3886 ft 242 kts 55°
2026-05-09 14:58 41.07133 16.50701 3731 ft 240 kts 78°
2026-05-09 14:58 41.07428 16.52867 3427 ft 238 kts 76°
2026-05-09 14:58 41.07863 16.54927 3115 ft 229 kts 69°
2026-05-09 14:58 41.08411 16.56867 2816 ft 218 kts 67°
2026-05-09 14:59 41.08952 16.58695 2536 ft 207 kts 67°
2026-05-09 14:59 41.09455 16.60445 2271 ft 197 kts 67°
2026-05-09 14:59 41.09906 16.62054 2098 ft 177 kts 67°
2026-05-09 14:59 41.10326 16.63556 1864 ft 173 kts 67°
2026-05-09 15:00 41.10603 16.64542 1736 ft 166 kts 67°
2026-05-09 15:00 41.11112 16.66359 1403 ft 148 kts 66°
2026-05-09 15:00 41.11456 16.67585 1189 ft 135 kts 66°
2026-05-09 15:00 41.11774 16.68711 1019 ft 130 kts 66°
2026-05-09 15:01 41.12412 16.70967 708 ft 129 kts 66°
2026-05-09 15:01 41.12725 16.72077 544 ft 129 kts 66°
2026-05-09 15:01 41.13036 16.73194 368 ft 128 kts 66°
2026-05-09 15:02 41.13350 16.74295 208 ft 126 kts 67°
2026-05-09 15:02 41.13628 16.75264 171 ft 91 kts 70°
2026-05-09 15:02 41.13808 16.75899 156 ft 67 kts 70°
2026-05-09 15:02 41.13960 16.76445 145 ft 42 kts 70°
2026-05-09 15:03 41.13979 16.76675 140 ft 6 kts 111°
2026-05-09 15:03 41.13960 16.76739 139 ft 8 kts 113°
2026-05-09 15:03 41.13948 16.76776 139 ft 3 kts 113°
2026-05-09 15:03 41.13925 16.76816 138 ft 10 kts 156°
2026-05-09 15:04 41.13875 16.76795 139 ft 3 kts 236°
2026-05-09 15:04 41.13858 16.76742 140 ft 10 kts 251°
2026-05-09 15:06 41.13667 16.76622 145 ft 5 kts 174°
2026-05-09 15:06 41.13649 16.76614 145 ft 0 kts 204°